Location: ???????
(55.4362°N, 38.1183°E)
Time: 14:13:43
(UTC+00:00)

M-CUBED/EXP-1 PRIME - Pass Details

Date: 11 December 2021
Orbit: 426 x 650 km, 101.7° (Epoch: 28 January)

Event Time Altitude Azimuth Distance (km) Brightness Sun altitude
Rises 04:08:04 0° 28° (NNE) 2,977 ? -12.4°
Reaches altitude 10° 04:10:37 10° 41° (NE) 2,046 ? -12.1°
Maximum altitude 04:14:24 27° 99° (E) 1,215 ? -11.6°
Drops below altitude 10° 04:18:02 10° 157° (SSE) 1,952 ? -11.1°
Sets 04:20:24 0° 170° (S) 2,813 ? -10.8°
